Theta_e
339 339 339 339 339 337 337 336 335 337 338 338 339 336 327 331 337 336 338 338 334 335 337 337 338 341 340 340 338 330 332 339 340 342 340 340 339 334 333 329 329 332 333
340 339 338 337 337 337 337 337 337 338 339 340 339 326 334 332 337 338 335 336 339 338 340 341 345 342 341 341 340 340 340 340 340 340 340 338 337 337 336 335 332 327 324
337 337 338 339 338 338 338 337 336 337 339 331 322 324 336 336 337 337 339 341 339 341 335 342 340 341 341 343 343 344 344 343 343 341 339 339 339 342 342 340 340 340 337
336 338 340 340 338 339 338 336 337 335 333 330 332 325 332 337 338 339 339 340 340 341 341 338 338 339 339 340 341 339 338 338 336 339 341 344 338 334 335 335 335 334 336
336 339 339 339 338 338 337 338 337 333 331 338 337 335 335 337 339 340 340 337 342 342 342 341 339 337 340 341 339 337 336 336 336 334 333 335 339 339 336 334 338 335 340
336 339 341 336 335 336 338 340 327 334 337 337 338 336 336 337 328 326 331 333 338 339 343 342 342 342 340 341 339 338 337 336 335 336 336 341 340 337 332 332 332 332 332
329 330 331 331 337 338 338 338 335 336 336 337 333 336 336 336 336 337 336 332 327 336 339 340 341 339 336 334 332 335 333 335 328 327 333 337 335 337 343 329 328 332 333
330 333 332 336 338 335 338 338 337 332 337 337 340 340 338 339 339 337 337 332 331 337 340 338 338 338 339 338 333 326 330 332 331 326 328 337 336 338 335 328 324 324 323
329 334 332 339 333 335 338 337 337 337 339 338 338 334 334 337 336 339 331 327 329 339 341 340 339 340 340 340 339 335 325 325 325 325 325 325 325 324 324 323 323 323 325
331 333 336 339 332 339 340 334 336 339 340 338 337 335 331 341 333 327 327 327 329 339 341 340 340 341 341 340 339 337 329 324 325 324 324 323 323 323 324 326 330 334 336
339 333 334 333 332 336 339 338 338 338 336 337 339 339 337 332 330 328 325 324 327 339 340 340 341 341 340 340 340 339 330 323 323 322 322 323 324 327 333 336 336 335 336
338 334 334 337 336 336 338 334 337 337 337 335 334 335 335 330 328 326 329 334 332 333 339 340 340 339 338 338 338 338 335 325 323 323 323 326 330 335 335 335 338 341 342
337 337 338 337 336 334 337 337 336 336 335 334 333 336 333 333 337 336 335 335 336 337 339 339 337 337 337 337 337 337 333 324 323 324 328 333 334 334 337 340 341 342 342
339 338 337 334 333 335 336 337 336 335 334 333 335 336 333 337 340 341 342 342 342 341 340 340 342 341 338 338 337 337 334 324 326 331 333 333 335 337 340 341 342 343 344
338 338 335 334 334 335 335 336 335 333 333 335 335 336 337 340 341 340 340 339 338 339 340 342 343 342 340 339 338 337 335 329 332 333 333 336 338 339 341 342 343 344 345
341 335 335 337 336 335 335 336 336 332 335 337 335 337 340 340 341 340 340 341 340 340 342 342 342 341 342 340 339 337 334 333 333 334 336 337 338 340 341 343 344 345 345
341 338 341 342 342 340 339 338 337 335 337 336 336 338 340 340 340 339 341 341 340 340 341 341 341 341 342 341 338 338 340 338 339 338 337 338 339 341 343 344 345 345 346
342 342 342 344 343 341 336 335 335 335 336 337 339 340 339 340 340 341 339 339 340 341 342 344 342 338 341 342 340 337 338 340 342 341 342 340 339 342 344 345 345 346 347
341 340 341 343 344 341 338 336 337 336 337 340 340 340 340 338 338 340 338 341 341 344 343 344 342 341 341 342 342 340 337 338 339 341 343 344 343 343 343 345 345 346 346
342 341 342 342 342 342 340 339 340 340 339 341 340 340 339 340 341 339 340 338 341 343 343 344 342 342 343 343 343 342 343 343 341 340 341 342 343 343 344 344 344 345 346
343 342 341 341 343 342 343 342 341 341 341 341 340 341 342 340 342 342 340 339 340 340 342 343 343 343 342 343 343 343 343 343 343 344 343 343 344 344 344 344 345 345 345
343 342 341 340 341 341 342 343 341 342 341 342 343 337 340 341 341 339 340 336 339 340 342 342 344 344 343 344 343 343 343 343 343 343 344 344 344 344 344 343 345 345 346
344 343 343 341 341 341 344 343 342 342 342 342 342 341 338 341 343 341 338 337 339 339 341 342 344 344 343 344 343 344 343 344 344 344 344 344 344 343 342 345 345 347 347
343 342 343 342 341 341 344 344 343 343 343 343 344 342 341 339 343 340 341 339 337 340 340 339 345 343 343 344 344 344 343 344 345 344 344 342 343 341 343 344 344 344 344
342 340 340 339 339 341 344 343 344 343 344 344 344 342 342 340 342 341 343 343 339 339 340 339 343 344 343 342 340 344 343 343 343 338 339 340 343 343 343 340 340 344 343
343 341 340 340 340 341 341 343 344 343 344 343 341 343 342 343 341 339 340 341 342 339 339 342 344 345 345 345 345 344 342 344 342 341 340 341 339 340 345 340 345 346 345
Wind_Speed
17 14 14 13 14 14 13 11 11 11 12 12 12 11 14 17 16 15 15 14 14 14 13 13 13 12 13 13 14 16 16 15 16 16 15 15 15 15 13 13 12 12 12
17 16 15 15 14 13 13 13 13 13 14 14 12 13 17 16 18 17 17 16 15 14 14 14 14 14 15 15 15 15 15 15 15 15 16 16 15 15 14 13 13 14 13
19 18 17 13 13 13 13 13 14 14 14 13 14 17 18 17 17 17 16 15 15 14 14 15 15 16 16 17 16 16 16 15 15 15 16 16 15 14 13 12 12 12 13
19 18 15 14 13 13 13 13 13 14 14 18 16 17 16 15 14 14 14 13 14 15 16 15 16 14 16 17 16 16 14 13 13 13 14 15 14 14 14 13 14 12 12
18 17 14 13 12 12 12 13 13 15 17 16 16 15 15 14 13 13 13 13 14 15 15 15 15 15 16 15 16 15 14 15 14 14 15 15 15 12 12 11 11 12 11
17 16 15 13 13 12 13 12 15 16 15 15 15 14 13 12 11 12 11 13 13 14 15 15 16 16 15 15 13 14 14 13 12 12 11 13 12 10 11 10 10 10 8
16 14 13 12 12 12 12 13 14 14 15 15 15 14 14 13 12 13 11 12 14 15 16 15 15 15 15 15 15 14 13 12 11 10 11 12 12 11 11 8 8 7 6
14 14 13 12 12 12 12 14 13 15 14 13 12 12 12 12 12 12 12 12 14 15 15 16 17 18 18 18 17 15 13 12 10 9 9 9 9 8 7 7 7 7 7
13 12 13 12 12 13 12 13 14 15 14 14 12 13 13 13 11 12 13 13 14 15 14 15 16 15 15 16 16 17 14 12 10 9 8 7 7 7 7 8 9 9 9
13 12 13 13 15 12 13 15 14 14 14 14 13 13 13 13 13 13 13 13 14 14 13 13 13 12 13 14 14 14 14 12 10 9 9 8 8 9 10 11 11 11 11
13 13 14 13 15 13 12 12 11 12 12 12 13 14 14 14 15 14 14 14 13 13 12 10 10 10 11 11 12 13 14 12 11 10 10 10 10 11 12 12 12 11 10
15 15 14 14 14 15 13 14 12 13 12 11 14 15 14 16 16 17 17 15 15 14 12 9 9 8 9 10 11 12 13 12 12 11 11 11 11 12 12 12 12 11 11
15 15 14 14 15 16 17 18 18 16 14 12 15 15 15 16 17 18 16 14 13 12 10 9 7 6 6 7 9 13 13 12 11 12 12 12 12 12 12 12 12 12 12
15 14 14 13 14 15 15 14 13 15 14 15 16 14 15 16 14 13 13 11 10 9 7 5 4 3 2 7 10 10 13 12 12 12 12 13 13 12 12 13 13 13 13
14 15 14 14 14 14 14 14 14 16 16 15 15 15 16 14 10 8 8 7 8 11 10 8 8 5 5 8 11 11 11 13 13 13 13 13 13 13 13 12 11 10 10
16 16 16 14 12 12 14 14 15 16 16 15 14 14 13 9 5 5 7 7 6 6 7 8 7 6 6 7 10 13 14 14 14 13 13 13 12 12 10 9 8 8 9
17 18 16 14 12 11 11 12 15 15 14 15 16 14 10 7 7 9 8 9 8 6 6 5 4 5 7 9 10 12 14 16 15 13 12 11 10 8 7 6 5 5 7
20 18 14 13 12 10 9 14 18 16 18 16 13 10 9 8 10 8 7 8 6 4 2 1 4 6 5 8 10 10 11 12 10 9 9 8 7 5 3 1 3 4 6
20 18 15 12 13 13 13 16 16 16 17 15 11 10 10 8 8 7 9 8 5 4 5 5 6 8 7 8 9 9 7 6 5 4 3 2 1 1 3 5 8 7 8
21 18 14 13 16 17 16 18 17 17 17 14 11 9 8 9 6 7 8 6 4 3 5 5 7 8 7 5 5 6 6 5 5 2 1 2 3 5 7 10 10 11 7
23 22 18 19 18 20 20 18 17 16 15 13 11 11 8 7 3 6 6 4 4 2 2 2 4 7 5 3 3 5 4 3 2 2 2 2 5 8 9 12 14 11 9
26 25 23 20 18 22 18 16 16 16 14 12 7 8 11 7 3 7 7 6 5 2 1 1 3 5 3 5 6 4 4 5 5 5 6 7 8 9 10 10 13 13 8
29 28 25 23 21 19 16 18 18 16 12 13 10 7 9 10 6 7 6 7 6 3 4 3 2 4 2 3 3 3 2 2 4 5 5 6 6 7 7 8 11 14 11
29 27 26 26 23 20 18 16 17 17 15 13 12 8 10 11 8 6 5 5 9 5 6 7 4 4 4 3 3 3 4 3 3 2 4 6 5 7 7 8 9 7 7
29 27 25 23 26 23 21 19 18 16 13 12 13 11 10 12 11 9 5 5 7 9 8 9 6 5 3 6 5 6 5 2 2 1 2 5 7 8 7 4 6 5 6
31 29 26 24 26 24 22 22 18 15 15 12 12 12 12 11 10 10 9 8 8 10 11 9 6 4 4 3 2 4 6 7 5 3 2 4 5 4 5 8 6 3 6
Wind_Direction
151 152 151 138 135 138 136 130 123 123 118 120 124 121 116 119 115 118 116 114 115 115 110 108 107 107 108 109 101 101 106 104 103 101 102 102 97 97 101 103 107 108 109
147 149 141 139 135 132 129 127 122 120 123 124 130 125 113 115 114 113 111 111 108 109 110 110 102 100 99 102 106 102 103 106 104 102 100 96 94 92 91 92 97 99 99
147 142 142 140 139 132 129 128 129 124 127 121 123 125 122 117 117 113 113 113 113 110 111 106 108 102 98 98 100 106 101 103 104 102 97 93 95 96 95 96 93 95 96
148 143 142 139 140 135 133 130 126 126 126 119 121 124 122 121 115 112 110 105 109 108 106 112 107 103 96 97 100 95 98 100 105 107 110 107 100 95 93 88 90 91 94
152 142 140 143 141 137 134 130 132 132 129 126 126 126 124 120 117 115 111 113 107 106 105 102 104 101 102 98 94 89 95 94 98 101 98 94 97 94 93 93 94 92 88
152 149 149 151 146 144 135 132 132 131 133 130 130 129 125 120 112 114 111 116 118 111 105 103 99 92 90 94 93 86 89 88 87 91 95 100 99 96 90 92 90 89 94
156 155 155 154 151 147 143 143 141 140 137 134 131 124 121 116 114 111 110 115 118 117 110 100 89 90 86 86 83 84 87 85 83 86 89 96 88 90 87 81 82 88 84
158 155 157 159 157 155 152 150 146 145 137 137 130 128 125 120 118 118 114 121 121 120 110 102 96 97 90 80 75 76 79 78 74 78 93 94 98 104 97 72 75 77 76
161 157 157 160 160 160 157 156 152 144 140 131 127 124 119 119 117 118 124 122 125 124 115 106 93 86 82 75 70 66 70 72 72 75 83 92 89 87 91 80 77 76 72
164 163 163 164 160 163 162 156 149 145 140 134 125 123 120 119 124 119 120 120 127 130 121 106 93 84 78 69 64 61 65 68 71 76 78 80 85 85 81 80 77 73 67
165 167 169 167 165 159 151 154 146 142 137 140 129 135 133 124 118 116 113 111 119 132 124 109 98 88 77 60 49 52 56 65 74 77 81 86 86 85 82 80 76 74 70
167 164 165 166 163 155 143 152 146 147 138 143 141 131 124 121 121 116 113 108 112 132 135 131 106 84 66 54 50 50 53 61 75 81 86 88 87 86 87 84 81 77 71
168 166 166 164 164 155 157 160 154 159 149 151 143 135 130 124 119 114 113 113 116 126 129 125 111 82 58 49 49 54 59 69 79 85 91 94 91 91 88 86 82 78 72
168 167 163 164 163 161 161 165 166 160 157 149 148 138 133 129 123 124 127 130 133 142 150 136 113 95 66 64 65 60 63 75 85 94 97 97 95 91 91 89 85 78 70
160 162 154 159 164 165 166 166 161 162 160 154 153 145 138 133 128 126 136 132 124 127 119 120 106 107 113 87 70 70 77 86 95 95 95 94 95 97 96 92 86 75 58
164 153 147 145 142 158 166 159 160 155 158 158 158 153 150 144 141 143 136 125 128 122 107 130 114 118 97 91 84 81 87 86 87 88 91 95 102 102 98 89 72 56 44
164 157 152 139 133 143 166 173 172 172 162 157 153 155 158 152 135 128 126 119 109 122 120 123 110 148 102 92 94 98 87 87 87 86 92 99 100 99 94 84 57 28 11
173 164 158 160 158 146 134 149 158 170 159 159 163 164 161 154 146 132 122 124 118 117 155 84 135 165 118 100 97 113 109 99 91 97 94 99 110 115 103 324 336 339 327
178 170 169 166 163 155 140 146 148 160 167 173 173 172 164 159 149 140 136 129 116 104 86 81 132 120 118 107 99 105 119 111 99 95 100 131 169 274 308 311 330 333 344
184 181 174 165 166 161 160 149 155 156 165 168 175 179 173 164 140 144 148 127 135 84 56 70 131 133 128 121 114 107 109 104 92 77 306 294 303 325 337 340 329 336 352
192 185 181 174 169 169 173 170 167 165 166 167 178 196 192 177 149 161 178 159 140 77 36 67 124 136 139 139 138 130 133 139 169 189 212 301 323 328 339 345 349 334 330
198 190 185 185 180 174 175 177 177 171 166 172 183 183 187 183 205 224 208 191 184 128 168 193 158 142 111 131 148 157 180 199 222 243 270 297 316 324 330 338 345 348 332
204 197 197 195 186 185 184 177 180 185 187 189 203 191 187 186 203 201 201 205 198 206 212 215 199 201 185 147 153 191 191 214 252 264 283 296 319 343 338 327 343 17 44
204 200 200 196 197 196 187 193 191 193 198 203 208 207 204 201 196 196 198 210 209 216 227 232 228 223 208 205 204 206 223 236 240 284 296 308 310 340 328 310 320 16 30
202 198 196 197 197 199 203 206 203 203 208 211 211 213 202 200 209 212 217 211 212 224 237 223 227 240 223 224 236 232 228 215 197 62 37 327 280 282 5 348 17 39 63
206 200 197 195 195 204 205 204 206 205 204 210 205 213 213 210 219 221 224 222 214 212 218 210 211 218 201 176 187 230 229 217 221 248 293 323 297 231 20 57 83 40 3